DW6386 Weather Reports


Display with metric or nautical units.
time (UTC)temp
F
wind
direction
speed
MPH
gust
MPH
rain 1hr
in
rain 24hr
in
rain mn
in
humidity
%
barometer
mb
20260510070002 51 121 0.0 0.0 0.00 0.00 0.00 95 1012.6
20260510064601 51 121 0.0 0.0 0.00 0.00 0.00 96 1012.5
20260510063058 52 121 0.0 0.0 0.00 0.00 0.00 94 1012.5
20260510061556 53 121 0.0 0.0 0.00 0.00 0.00 95 1012.5
20260510060053 53 121 0.0 0.0 0.00 0.00 0.00 95 1012.6
20260510054550 54 121 0.0 0.0 0.00 0.00 0.00 96 1012.7
20260510053048 54 121 0.0 0.0 0.00 0.00 0.00 94 1012.7
20260510051548 54 121 0.0 0.0 0.00 0.00 0.00 94 1012.7
20260510050049 54 121 0.0 0.0 0.00 0.00 0.00 93 1012.7
20260510044543 55 121 0.0 0.0 0.00 0.00 0.00 92 1012.7
20260510043042 56 121 0.0 0.0 0.00 0.00 0.00 92 1012.6
20260510041536 56 120 0.0 0.0 0.00 0.00 0.00 91 1012.6
20260510040034 56 120 0.0 0.0 0.00 0.00 0.00 89 1012.6
20260510034541 58 120 0.0 0.0 0.00 0.00 0.00 89 1012.5
20260510033031 58 120 0.0 0.0 0.00 0.00 0.00 88 1012.5
20260510031531 58 120 0.0 0.0 0.00 0.00 0.00 86 1012.4
20260510030029 59 120 0.0 0.0 0.00 0.00 0.00 87 1012.3
20260510024529 59 120 0.0 0.0 0.00 0.00 0.00 86 1012.1
20260510023027 60 120 0.0 0.0 0.00 0.00 0.00 84 1012.1
20260510021526 60 121 0.0 0.0 0.00 0.00 0.00 83 1012.0
20260510020025 61 120 0.0 0.0 0.00 0.00 0.00 81 1011.7
20260510014526 62 120 0.0 0.0 0.00 0.00 0.00 78 1011.4
20260510013025 63 121 0.0 0.0 0.00 0.00 0.00 75 1011.1
20260510011536 64 121 0.0 0.0 0.00 0.00 0.00 73 1010.8
20260510010022 65 121 0.0 0.0 0.00 0.00 0.00 72 1010.6
20260510004523 66 120 0.0 0.0 0.00 0.00 0.00 70 1010.4
20260510003024 67 121 0.0 0.0 0.00 0.00 0.00 67 1010.4
20260510001523 68 121 0.0 0.0 0.00 0.00 0.00 66 1010.1
20260510000034 69 121 0.0 0.0 0.00 0.00 0.00 64 1009.9
20260509234522 70 120 0.0 0.0 0.00 0.00 0.00 62 1009.8
20260509233019 71 120 0.0 0.0 0.00 0.00 0.00 62 1009.6
20260509231518 72 120 0.0 0.0 0.00 0.00 0.00 60 1009.3
20260509230019 72 120 0.0 0.0 0.00 0.00 0.00 58 1009.3
20260509224518 73 120 0.0 0.0 0.00 0.00 0.00 57 1009.3
20260509223017 74 138 0.0 0.0 0.00 0.00 0.00 56 1009.2
20260509221515 75 129 0.0 2.0 0.00 0.00 0.00 53 1009.1
20260509220014 76 60 3.0 7.0 0.00 0.00 0.00 50 1009.3
20260509214520 76 76 0.0 2.0 0.00 0.00 0.00 53 1009.2
20260509213013 76 70 0.0 11.0 0.00 0.00 0.00 50 1009.2
20260509211515 77 146 0.0 4.0 0.00 0.00 0.00 51 1009.0
20260509210007 77 61 2.0 5.0 0.00 0.00 0.00 52 1008.8
20260509204504 76 63 0.0 2.0 0.00 0.00 0.00 63 1008.7
20260509203001 76 44 0.0 4.0 0.00 0.00 0.00 62 1009.0
20260509201608 76 46 0.0 3.0 0.00 0.00 0.00 62 1009.2
20260509200107 75 292 1.0 4.0 0.00 0.00 0.00 64 1009.5
20260509194555 75 295 1.0 5.0 0.00 0.00 0.00 62 1009.5
20260509193154 75 71 0.0 4.0 0.00 0.00 0.00 63 1009.6
20260509191550 74 28 2.0 6.0 0.00 0.00 0.00 62 1009.7
20260509190048 74 103 1.0 10.0 0.00 0.00 0.00 62 1009.7
20260509184558 74 49 2.0 7.0 0.00 0.00 0.00 64 1009.7
20260509183044 73 40 1.0 5.0 0.00 0.00 0.00 66 1009.7
20260509181547 71 58 2.0 6.0 0.00 0.00 0.00 66 1009.7
20260509180038 71 346 1.0 4.0 0.00 0.00 0.00 68 1009.8
20260509174539 71 46 2.0 7.0 0.00 0.00 0.00 68 1009.9
20260509173036 71 304 1.0 4.0 0.00 0.00 0.00 69 1010.0
20260509171535 71 274 2.0 6.0 0.00 0.00 0.00 69 1010.1
20260509170035 70 224 1.0 8.0 0.00 0.00 0.00 69 1010.2
20260509164531 72 350 2.0 7.0 0.00 0.00 0.00 71 1010.3
20260509163027 71 25 2.0 9.0 0.00 0.00 0.00 69 1010.6
20260509161529 69 32 5.0 11.0 0.00 0.00 0.00 70 1010.6
20260509160032 69 297 3.0 8.0 0.00 0.00 0.00 71 1010.6
20260509154522 69 44 2.0 7.0 0.00 0.00 0.00 73 1010.7
20260509153031 68 52 1.0 9.0 0.00 0.00 0.00 74 1010.7
20260509151517 68 353 0.0 6.0 0.00 0.00 0.00 72 1010.8
20260509150020 66 258 0.0 5.0 0.00 0.00 0.00 77 1010.8
20260509144523 65 46 1.0 10.0 0.00 0.00 0.00 77 1010.6
20260509143008 64 39 0.0 9.0 0.00 0.00 0.00 79 1010.6
20260509141508 63 32 3.0 7.0 0.00 0.00 0.00 78 1010.7
20260509140001 62 96 0.0 5.0 0.00 0.00 0.00 81 1010.7
20260509134612 62 153 0.0 2.0 0.00 0.00 0.00 83 1010.4
20260509133055 59 85 0.0 1.0 0.00 0.00 0.00 91 1010.5
20260509131550 56 61 0.0 1.0 0.00 0.00 0.00 94 1010.4
20260509130056 55 110 0.0 0.0 0.00 0.00 0.00 95 1010.8
20260509124545 53 119 0.0 0.0 0.00 0.00 0.00 97 1010.8
20260509123051 52 119 0.0 0.0 0.00 0.00 0.00 96 1010.8
20260509121553 52 119 0.0 0.0 0.00 0.00 0.00 97 1010.9
20260509120035 51 119 0.0 0.0 0.00 0.00 0.00 97 1011.1
20260509114537 50 119 0.0 0.0 0.00 0.00 0.00 97 1011.1
20260509113036 50 118 0.0 0.0 0.00 0.00 0.00 97 1010.8
20260509111529 49 116 0.0 0.0 0.00 0.00 0.00 97 1010.8
20260509110032 49 115 0.0 0.0 0.00 0.00 0.00 97 1010.5
20260509104538 48 115 0.0 0.0 0.00 0.00 0.00 97 1010.5
20260509103027 47 115 0.0 0.0 0.00 0.00 0.00 96 1010.5
20260509101533 47 115 0.0 0.0 0.00 0.00 0.00 96 1010.8
20260509100028 47 115 0.0 0.0 0.00 0.00 0.00 96 1010.9
20260509094532 47 115 0.0 0.0 0.00 0.00 0.00 96 1011.0
20260509093025 47 115 0.0 0.0 0.00 0.00 0.00 96 1010.9
20260509091535 46 115 0.0 0.0 0.00 0.00 0.00 97 1010.8
20260509090025 46 115 0.0 0.0 0.00 0.00 0.00 96 1010.5
20260509084524 46 115 0.0 0.0 0.00 0.00 0.00 96 1010.4
20260509083021 46 113 0.0 0.0 0.00 0.00 0.00 96 1010.4
20260509081526 46 113 0.0 0.0 0.00 0.00 0.00 95 1010.3
20260509080019 46 113 0.0 0.0 0.00 0.00 0.00 95 1010.6
20260509074531 46 113 0.0 0.0 0.00 0.00 0.00 96 1010.5
20260509073018 46 113 0.0 0.0 0.00 0.00 0.00 95 1010.4
20260509071515 45 113 0.0 0.0 0.00 0.00 0.00 94 1010.6